Location: Berlin
(52.5171°N, 13.3759°E)
Time: 23:59:50
(UTC+01:00)

ISS - Visible Passes

Search period start: 20 November 2017 00:00
Search period end: 30 November 2017 00:00
Orbit: 402 x 407 km, 51.6° (Epoch: 21 November)

Date Brightness Start Highest point End Pass type
(mag) Time Alt. Az. Time Alt. Az. Time Alt. Az.
28 Nov -1.3 18:17:12 10° S 18:17:53 13° S 18:17:53 13° S visible
29 Nov -1.3 17:27:02 10° SE 17:27:10 10° SE 17:27:20 10° SE visible
29 Nov -0.9 18:59:53 10° SW 19:00:27 14° SW 19:00:27 14° SW visible
